Weather History for Canadian, TX

Change the Weather History Date:

Friday, January 17, 2014

  Actual Average (KPPA) Record (KPPA)
Temperature  
Mean Temperature 40 °F -  
Max Temperature 55 °F 47 °F 71 °F (1974)
Min Temperature 25 °F 22 °F 1 °F (1978)
Degree Days  
Heating Degree Days 25    
Moisture  
Dew Point 12 °F    
Average Humidity 32    
Maximum Humidity 56    
Minimum Humidity 18    
Precipitation  
Precipitation 0.00 in - - ()
Sea Level Pressure  
Sea Level Pressure 30.20 in    
Wind  
Wind Speed 7 mph (West)    
Max Wind Speed 21 mph    
Max Gust Speed 26 mph    
Visibility 10 miles    
Events      
Averages and records for this station are not official NWS values.
T = Trace of Precipitation, MM = Missing Value Source: NWS Daily Summary

Daily Weather History Graph

Daily Weather History Graph

Search for Another Location

Airport:

Trip Planner

Search our weather history database for the weather conditions in past years. The results will help you decide how hot, cold, wet, or windy it might be!

Date:

Astronomy

Jan. 17, 2014 Rise Set
Actual Time 7:50 AM CST 5:53 PM CST
Civil Twilight 7:22 AM CST 6:21 PM CST
Nautical Twilight 6:51 AM CST 6:52 PM CST
Astronomical Twilight 6:20 AM CST 7:23 PM CST
Moon 7:36 PM CST 8:23 AM CST
Length of Visible Light 10h 58m
Length of Day
10h 02m
Full, 98% of the Moon is Illuminated
Jan 17
Full
Jan 23
Last Quarter
Jan 30
New
Feb 6
First Quarter
Feb 14
Full

Hourly Weather History & Observations

Time (CST) Temp. Windchill Dew Point Humidity Pressure Visibility Wind Dir Wind Speed Gust Speed Precip Events Conditions
12:15 AM 44.6 °F 39.7 °F 4.1 °F 19% 30.27 in 10.0 mi North 9.2 mph - N/A   Overcast
12:35 AM 43.9 °F 37.9 °F 2.7 °F 18% 30.28 in 10.0 mi North 11.5 mph 17.3 mph N/A   Overcast
12:55 AM 43.2 °F 37.0 °F 2.8 °F 19% 30.28 in 10.0 mi North 11.5 mph 19.6 mph N/A   Overcast
1:15 AM 42.4 °F 35.0 °F 3.7 °F 20% 30.28 in 10.0 mi NNE 15.0 mph 19.6 mph N/A   Overcast
1:35 AM 41.9 °F 35.4 °F 4.6 °F 21% 30.28 in 10.0 mi NNE 11.5 mph - N/A   Overcast
1:55 AM 41.2 °F 35.0 °F 5.7 °F 23% 30.28 in 10.0 mi North 10.4 mph 17.3 mph N/A   Overcast
2:15 AM 40.8 °F 35.0 °F 5.9 °F 24% 30.29 in 10.0 mi North 9.2 mph 16.1 mph N/A   Overcast
2:35 AM 40.5 °F 35.1 °F 6.6 °F 25% 30.29 in 10.0 mi North 8.1 mph - N/A   Overcast
2:55 AM 39.7 °F 33.7 °F 7.3 °F 26% 30.29 in 10.0 mi North 9.2 mph - N/A   Overcast
3:15 AM 39.2 °F 35.0 °F 7.7 °F 27% 30.30 in 10.0 mi North 5.8 mph - N/A   Overcast
3:35 AM 38.8 °F 33.8 °F 8.1 °F 28% 30.29 in 10.0 mi North 6.9 mph - N/A   Overcast
3:55 AM 38.5 °F 33.4 °F 8.6 °F 29% 30.30 in 10.0 mi North 6.9 mph - N/A   Overcast
4:15 AM 37.9 °F 33.5 °F 9.1 °F 30% 30.30 in 10.0 mi NNW 5.8 mph - N/A   Overcast
4:35 AM 37.0 °F 33.3 °F 9.5 °F 32% 30.29 in 10.0 mi NNW 4.6 mph - N/A   Overcast
4:55 AM 35.8 °F 30.9 °F 9.7 °F 34% 30.29 in 10.0 mi NNW 5.8 mph - N/A   Mostly Cloudy
5:15 AM 33.4 °F 29.1 °F 9.5 °F 37% 30.29 in 10.0 mi NNW 4.6 mph - N/A   Clear
5:35 AM 32.9 °F - 9.7 °F 38% 30.28 in 10.0 mi Calm Calm - N/A   Clear
5:55 AM 31.8 °F - 9.9 °F 40% 30.29 in 10.0 mi Calm Calm - N/A   Clear
6:15 AM 29.1 °F - 9.7 °F 44% 30.29 in 10.0 mi Calm Calm - N/A   Clear
6:35 AM 27.0 °F - 9.3 °F 48% 30.29 in 10.0 mi Calm Calm - N/A   Clear
6:55 AM 29.8 °F - 10.4 °F 44% 30.30 in 10.0 mi Calm Calm - N/A   Clear
7:15 AM 28.9 °F - 10.2 °F 46% 30.29 in 10.0 mi Calm Calm - N/A   Clear
7:35 AM 28.4 °F - 10.2 °F 47% 30.30 in 10.0 mi Calm Calm - N/A   Clear
7:55 AM 28.0 °F - 10.4 °F 48% 30.30 in 10.0 mi Calm Calm - N/A   Clear
8:15 AM 25.7 °F - 10.0 °F 52% 30.31 in 10.0 mi Calm Calm - N/A   Clear
8:35 AM 28.4 °F - 11.3 °F 49% 30.31 in 10.0 mi Calm Calm - N/A   Clear
8:55 AM 30.6 °F - 12.0 °F 46% 30.32 in 10.0 mi Calm Calm - N/A   Clear
9:15 AM 32.9 °F - 11.5 °F 41% 30.32 in 10.0 mi Calm Calm - N/A   Clear
9:35 AM 34.5 °F 31.6 °F 11.8 °F 39% 30.33 in 10.0 mi NW 3.5 mph - N/A   Clear
9:55 AM 37.6 °F 34.0 °F 11.3 °F 34% 30.33 in 10.0 mi West 4.6 mph - N/A   Clear
10:15 AM 38.7 °F 33.6 °F 11.3 °F 33% 30.33 in 10.0 mi WNW 6.9 mph - N/A   Clear
10:35 AM 40.1 °F 34.7 °F 11.3 °F 31% 30.32 in 10.0 mi West 8.1 mph - N/A   Clear
10:55 AM 41.0 °F 37.1 °F 10.9 °F 29% 30.32 in 10.0 mi West 5.8 mph - N/A   Clear
11:15 AM 42.3 °F 37.9 °F 11.1 °F 28% 30.30 in 10.0 mi WNW 6.9 mph - N/A   Clear
11:35 AM 42.8 °F 37.5 °F 10.8 °F 27% 30.29 in 10.0 mi West 9.2 mph - N/A   Clear
11:55 AM 44.6 °F 39.7 °F 11.1 °F 26% 30.27 in 10.0 mi WSW 9.2 mph - N/A   Clear
12:15 PM 45.5 °F 40.8 °F 11.1 °F 25% 30.26 in 10.0 mi West 9.2 mph - N/A   Clear
12:35 PM 47.1 °F - 11.5 °F 24% 30.24 in 10.0 mi West 12.7 mph - N/A   Clear
12:55 PM 48.4 °F - 11.5 °F 23% 30.22 in 10.0 mi WSW 8.1 mph 16.1 mph N/A   Clear
1:15 PM 49.3 °F - 11.7 °F 22% 30.20 in 10.0 mi WSW 8.1 mph 17.3 mph N/A   Clear
1:35 PM 50.4 °F - 12.7 °F 22% 30.19 in 10.0 mi WSW 10.4 mph - N/A   Clear
1:55 PM 52.2 °F - 13.8 °F 22% 30.17 in 10.0 mi West 10.4 mph 19.6 mph N/A   Clear
2:15 PM 53.1 °F - 14.9 °F 22% 30.16 in 10.0 mi WSW 18.4 mph - N/A   Clear
2:35 PM 54.5 °F - 16.2 °F 22% 30.15 in 10.0 mi WSW 12.7 mph 21.9 mph N/A   Clear
2:55 PM 55.0 °F - 16.3 °F 22% 30.14 in 10.0 mi WSW 19.6 mph 26.5 mph N/A   Clear
3:15 PM 55.4 °F - 15.8 °F 21% 30.14 in 10.0 mi WSW 20.7 mph 24.2 mph N/A   Clear
3:35 PM 55.6 °F - 15.6 °F 21% 30.13 in 10.0 mi West 15.0 mph 21.9 mph N/A   Clear
3:55 PM 55.6 °F - 15.6 °F 21% 30.12 in 10.0 mi West 12.7 mph - N/A   Clear
4:15 PM 55.8 °F - 15.8 °F 21% 30.12 in 10.0 mi WSW 10.4 mph - N/A   Clear
4:35 PM 55.9 °F - 15.8 °F 21% 30.11 in 10.0 mi WSW 10.4 mph - N/A   Clear
4:55 PM 55.9 °F - 15.4 °F 20% 30.10 in 10.0 mi WSW 8.1 mph - N/A   Clear
5:15 PM 55.4 °F - 16.0 °F 21% 30.10 in 10.0 mi WSW 5.8 mph - N/A   Clear
5:35 PM 53.8 °F - 15.8 °F 22% 30.09 in 10.0 mi WSW 6.9 mph - N/A   Clear
5:55 PM 50.2 °F - 15.8 °F 26% 30.09 in 10.0 mi SW 5.8 mph - N/A   Clear
6:15 PM 48.0 °F - 15.8 °F 28% 30.09 in 10.0 mi SW 5.8 mph - N/A   Clear
6:35 PM 46.0 °F 43.9 °F 15.6 °F 30% 30.09 in 10.0 mi SW 4.6 mph - N/A   Clear
6:55 PM 45.5 °F 43.2 °F 15.8 °F 30% 30.09 in 10.0 mi SW 4.6 mph - N/A   Clear
7:15 PM 43.2 °F 39.7 °F 15.4 °F 33% 30.08 in 10.0 mi SSW 5.8 mph - N/A   Clear
7:35 PM 40.5 °F 37.3 °F 15.4 °F 36% 30.09 in 10.0 mi SW 4.6 mph - N/A   Clear
7:55 PM 41.2 °F 39.2 °F 15.6 °F 36% 30.08 in 10.0 mi SW 3.5 mph - N/A   Clear
8:15 PM 37.6 °F - 15.1 °F 40% 30.08 in 10.0 mi Calm Calm - N/A   Clear
8:35 PM 40.3 °F - 15.8 °F 37% 30.07 in 10.0 mi Calm Calm - N/A   Clear
8:55 PM 40.3 °F 38.2 °F 15.8 °F 37% 30.07 in 10.0 mi WNW 3.5 mph - N/A   Clear
9:15 PM 39.4 °F 34.5 °F 15.6 °F 38% 30.06 in 10.0 mi SW 6.9 mph - N/A   Clear
9:35 PM 36.5 °F - 15.8 °F 43% 30.07 in 10.0 mi Calm Calm - N/A   Clear
9:55 PM 37.4 °F - 15.8 °F 41% 30.07 in 10.0 mi Calm Calm - N/A   Clear
10:15 PM 36.9 °F - 15.8 °F 42% 30.07 in 10.0 mi Calm Calm - N/A   Clear
10:35 PM 36.0 °F 33.3 °F 15.6 °F 44% 30.06 in 10.0 mi SW 3.5 mph - N/A   Clear
10:55 PM 34.5 °F 31.6 °F 15.1 °F 45% 30.06 in 10.0 mi WSW 3.5 mph - N/A   Clear
11:15 PM 32.2 °F 28.9 °F 15.4 °F 50% 30.05 in 10.0 mi SW 3.5 mph - N/A   Clear
11:35 PM 32.9 °F 28.5 °F 15.8 °F 49% 30.05 in 10.0 mi WSW 4.6 mph - N/A   Clear
11:55 PM 29.8 °F 24.9 °F 15.6 °F 56% 30.05 in 10.0 mi SW 4.6 mph - N/A   Clear